Find ION Charismatic Carlus

NORAD ID: 64575 Int'l Des: 2025-135 Owner: DORBIT Country: I operational
LEOCIRCULARRETROGRADESSO

現在のビュー

3D地球を読み込み中...

About ION Charismatic Carlus

ION Charismatic Carlus (NORAD 64575) is a satellite launched Jun 23, 2025 by DORBIT of I. It operates in LEO, CIRCULAR, RETROGRADE, SSO orbit with a mass of 150.00 kg.

次回通過

Passes for default location (London). Set your location on the main map for personalized predictions.

高度履歴

Loading altitude history...

軌道要素

1 64575U 25135AZ 26174.91592854 .00000653 00000-0 65521-4 0 9993
2 64575 97.7784 289.9358 0011174 269.9078 90.0861 14.94657970 54937
Epoch: Jun 23, 2026 • Age: 6 hours

現在のステータス

高度 586.7 km
速度 7.57 km/s
衛星直下点 -3.53°S, 47.56°W
打ち上げ日 Jun 23, 2025
運用期間 1 year
タイプ other

技術仕様

分類 Payload
質量 150.00 kg
乾燥質量 150.00 kg
総質量 220.00 kg
長さ 0.40 m
直径 0.40 m
スパン 0.40 m
形状 Box
製造者 DORBIT
バスタイプ ION-SC
フェーズステータス In Orbit
所有者/国 DORBIT/I

Most Searched